Weather History for Houston Clover, TX

Change the Weather History Date:

Sunday, August 4, 2013

  Actual Average (KHOU) Record (KHOU)
Temperature  
Mean Temperature 84 °F 85 °F  
Max Temperature 93 °F 95 °F 102 °F (1951)
Min Temperature 78 °F 75 °F 63 °F (1976)
Cooling Degree Days 20 20  
Month to date cooling degree days 80  
Year to date cooling degree days 1853  
Since 1 June cooling degree days 1201  
Growing Degree Days 34 (Base 50)    
Moisture  
Dew Point 75 °F    
Average Humidity 73    
Maximum Humidity 88    
Minimum Humidity 55    
Precipitation  
Precipitation 0.02 in 0.11 in 2.94 in (1975)
Month to date precipitation 0.41  
Year to date precipitation 28.52  
Sea Level Pressure  
Sea Level Pressure 30.05 in    
Wind  
Wind Speed 4 mph (South)    
Max Wind Speed 15 mph    
Max Gust Speed 20 mph    
Visibility 10 miles    
Events Rain , Thunderstorm    
T = Trace of Precipitation, MM = Missing Value Source: NWS Daily Summary

Daily Weather History Graph

Daily Weather History Graph

Search for Another Location

Airport:

Trip Planner

Search our weather history database for the weather conditions in past years. The results will help you decide how hot, cold, wet, or windy it might be!

Date:

Astronomy

Aug. 04, 2013 Rise Set
Actual Time 6:42 AM CDT 8:10 PM CDT
Civil Twilight 6:17 AM CDT 8:36 PM CDT
Nautical Twilight 5:46 AM CDT 9:06 PM CDT
Astronomical Twilight 5:14 AM CDT 9:38 PM CDT
Moon 4:46 AM CDT (8/4) 6:34 PM CDT (8/4)
Length of Visible Light 14h 19m
Length of Day
13h 28m
Waning Crescent, 4% of the Moon is Illuminated
Aug 4
Waning Crescent
Aug 6
New
Aug 14
First Quarter
Aug 20
Full
Aug 28
Last Quarter

Hourly Weather History & Observations

Time (CDT) Temp. Heat Index Dew Point Humidity Pressure Visibility Wind Dir Wind Speed Gust Speed Precip Events Conditions
12:53 AM 81.0 °F 87.3 °F 75.9 °F 85% 30.06 in 10.0 mi Calm Calm - N/A   Clear
1:53 AM 81.0 °F 86.7 °F 75.0 °F 82% 30.06 in 10.0 mi Calm Calm - N/A   Clear
2:53 AM 80.1 °F 85.1 °F 75.0 °F 85% 30.05 in 10.0 mi Calm Calm - N/A   Clear
3:53 AM 80.1 °F 85.1 °F 75.0 °F 85% 30.05 in 10.0 mi Calm Calm - N/A   Clear
4:53 AM 79.0 °F - 75.0 °F 88% 30.04 in 10.0 mi Calm Calm - N/A   Clear
5:53 AM 79.0 °F - 75.0 °F 88% 30.04 in 10.0 mi Calm Calm - N/A   Clear
6:53 AM 78.1 °F - 73.9 °F 87% 30.06 in 10.0 mi Calm Calm - N/A   Clear
7:53 AM 81.0 °F 87.3 °F 75.9 °F 85% 30.08 in 10.0 mi Calm Calm - N/A   Clear
8:53 AM 84.0 °F 92.6 °F 75.9 °F 76% 30.09 in 10.0 mi SSW 4.6 mph - N/A   Clear
9:53 AM 86.0 °F 95.1 °F 75.0 °F 70% 30.10 in 10.0 mi SSW 5.8 mph - N/A   Scattered Clouds
10:53 AM 89.1 °F 99.1 °F 75.0 °F 63% 30.09 in 10.0 mi South 4.6 mph - N/A   Partly Cloudy
11:53 AM 90.0 °F 99.0 °F 73.9 °F 59% 30.08 in 10.0 mi SW 4.6 mph - N/A   Mostly Cloudy
12:53 PM 89.1 °F 98.0 °F 73.9 °F 61% 30.07 in 10.0 mi SSE 13.8 mph 19.6 mph 0.00 in   Mostly Cloudy
1:53 PM 91.9 °F 101.3 °F 73.9 °F 55% 30.05 in 10.0 mi SSE 6.9 mph - N/A   Clear
2:31 PM 84.2 °F 89.6 °F 71.6 °F 66% 30.05 in 10.0 mi South 15.0 mph - 0.00 in Rain , Thunderstorm Light Rain
2:47 PM 82.4 °F 89.5 °F 75.2 °F 79% 30.04 in 4.0 mi SSE 9.2 mph - 0.02 in Rain , Thunderstorm Rain
2:53 PM 84.9 °F 93.3 °F 75.0 °F 72% 30.04 in 8.0 mi South 9.2 mph - 0.02 in Rain , Thunderstorm Light Rain
3:25 PM 82.4 °F 88.2 °F 73.4 °F 74% 30.04 in 10.0 mi South 10.4 mph - 0.00 in   Mostly Cloudy
3:39 PM 84.2 °F 92.3 °F 75.2 °F 74% 30.03 in 10.0 mi South 9.2 mph - 0.00 in Thunderstorm Partly Cloudy
3:53 PM 87.1 °F 96.3 °F 75.0 °F 67% 30.02 in 10.0 mi SSW 8.1 mph - 0.00 in   Clear
4:53 PM 90.0 °F 100.2 °F 75.0 °F 61% 30.01 in 10.0 mi SSE 9.2 mph - N/A   Clear
5:53 PM 90.0 °F 99.0 °F 73.9 °F 59% 30.00 in 10.0 mi South 12.7 mph - N/A   Clear
6:53 PM 89.1 °F 98.0 °F 73.9 °F 61% 30.00 in 10.0 mi South 10.4 mph 19.6 mph N/A   Clear
7:53 PM 87.1 °F 95.4 °F 73.9 °F 65% 30.01 in 10.0 mi South 10.4 mph - N/A   Clear
8:53 PM 84.9 °F 92.1 °F 73.9 °F 69% 30.02 in 10.0 mi South 5.8 mph - N/A   Clear
9:53 PM 82.9 °F 90.2 °F 75.0 °F 77% 30.03 in 10.0 mi South 5.8 mph - N/A   Clear
10:53 PM 82.0 °F 88.6 °F 75.0 °F 79% 30.04 in 10.0 mi South 3.5 mph - N/A   Clear
11:53 PM 81.0 °F 87.3 °F 75.9 °F 85% 30.04 in 10.0 mi North - - N/A   Clear